Welcome to Hicks Airfield

Driving Safety »



  • Current KAFW METAR
    (5.8nm NE) VFR
    KAFW 100153Z 05010KT 10SM CLR 21/13 A2988 RMK AO2 SLP106 T02110133
  • Flappings Newsletter
    The official newsletter of HAPA.
    Read »
  • Property Owner's Portal
    Create an account on our new secure portal for access to secure documents.
    Log-in »
  • Air Traffic
    Hear Hicks air traffic from anywhere.
    Listen »